When you browse on this site, cookies collect data to enhance your experience and personalize the content and advertising you see.
Visit our Privacy Policy to learn more. By continuing to use the site, you agree to this use of cookies and data.
  • In United Kingdom
  • List of Countries
  • For 7 days
  • Water Temperature
  • Weather Map
  • Weather Widgets
  • user-avatar
    Login

    Hourly Weather Bracknell

    Today, 22 November, Friday

    Time Temperature Precipitation Wind Pressure Humidity
    00:00 +7°C° 0 mm 3 mps 740 mmHg 95%
    01:00 +7°C° 0.4 mm 3 mps 740 mmHg 94%
    02:00 +7°C° 0.4 mm 3 mps 739 mmHg 93%
    03:00 +6°C° 0.4 mm 4 mps 739 mmHg 92%
    04:00 +6°C° 0.1 mm 4 mps 739 mmHg 91%
    05:00 +5°C° 0.1 mm 4 mps 739 mmHg 91%
    06:00 +6°C° 0 mm 2 mps 739 mmHg 93%
    07:00 +5°C° 0.1 mm 3 mps 739 mmHg 92%
    08:00 +5°C° 0.1 mm 3 mps 739 mmHg 91%
    09:00 +6°C° 0.1 mm 4 mps 739 mmHg 90%
    10:00 +7°C° 0.1 mm 5 mps 739 mmHg 87%
    11:00 +7°C° 0.1 mm 5 mps 739 mmHg 85%
    12:00 +8°C° 0 mm 5 mps 739 mmHg 82%
    13:00 +8°C° 0.1 mm 6 mps 739 mmHg 83%
    14:00 +8°C° 0.1 mm 6 mps 738 mmHg 84%
    15:00 +7°C° 0.1 mm 6 mps 738 mmHg 86%
    16:00 +7°C° 0 mm 6 mps 738 mmHg 85%
    17:00 +7°C° 0 mm 6 mps 738 mmHg 84%
    18:00 +7°C° 0 mm 5 mps 738 mmHg 84%
    19:00 +7°C° 0 mm 5 mps 738 mmHg 84%
    20:00 +7°C° 0 mm 5 mps 737 mmHg 85%
    21:00 +7°C° 0 mm 5 mps 737 mmHg 86%
    22:00 +7°C° 0.1 mm 6 mps 737 mmHg 86%
    23:00 +7°C° 0.1 mm 6 mps 737 mmHg 87%

    Tomorrow, 23 November, Saturday

    Time Temperature Precipitation Wind Pressure Humidity
    00:00 +8°C° 0.1 mm 7 mps 736 mmHg 88%
    01:00 +6°C° 0.4 mm 7 mps 736 mmHg 88%
    02:00 +6°C° 0.4 mm 7 mps 736 mmHg 89%
    03:00 +6°C° 0.4 mm 7 mps 735 mmHg 89%
    04:00 +7°C° 0.2 mm 6 mps 735 mmHg 89%
    05:00 +8°C° 0.2 mm 6 mps 736 mmHg 89%
    06:00 +8°C° 0.2 mm 6 mps 736 mmHg 89%
    07:00 +8°C° 0.2 mm 5 mps 736 mmHg 90%
    08:00 +8°C° 0.2 mm 5 mps 736 mmHg 91%
    09:00 +8°C° 0.2 mm 5 mps 737 mmHg 92%
    10:00 +8°C° 0.5 mm 5 mps 737 mmHg 92%
    11:00 +8°C° 0.5 mm 5 mps 738 mmHg 91%
    12:00 +9°C° 0.5 mm 5 mps 738 mmHg 91%
    13:00 +9°C° 0.2 mm 5 mps 738 mmHg 91%
    14:00 +10°C° 0.2 mm 4 mps 738 mmHg 92%
    15:00 +10°C° 0.2 mm 4 mps 738 mmHg 92%
    16:00 +8°C° 0.3 mm 4 mps 739 mmHg 90%
    17:00 +8°C° 0.3 mm 5 mps 739 mmHg 87%
    18:00 +8°C° 0.3 mm 5 mps 740 mmHg 85%
    19:00 +7°C° 0 mm 4 mps 741 mmHg 86%
    20:00 +8°C° 0 mm 3 mps 741 mmHg 88%
    21:00 +7°C° 0 mm 2 mps 742 mmHg 89%
    22:00 +7°C° 0 mm 2 mps 742 mmHg 90%
    23:00 +8°C° 0 mm 1 mps 742 mmHg 91%

    Day after tomorrow, 24 November, Sunday

    Time Temperature Precipitation Wind Pressure Humidity
    00:00 +6°C° 0 mm 0 mps 743 mmHg 92%
    01:00 +6°C° 0 mm 0 mps 743 mmHg 92%
    02:00 +7°C° 0 mm 1 mps 743 mmHg 93%
    03:00 +7°C° 0 mm 1 mps 743 mmHg 94%
    04:00 +6°C° 0 mm 0 mps 744 mmHg 94%
    05:00 +6°C° 0 mm 0 mps 744 mmHg 95%
    06:00 +6°C° 0 mm 0 mps 745 mmHg 95%
    07:00 +7°C° 0 mm 1 mps 745 mmHg 96%
    08:00 +8°C° 0 mm 1 mps 745 mmHg 96%
    09:00 +8°C° 0 mm 1 mps 745 mmHg 97%
    10:00 +9°C° 0 mm 2 mps 746 mmHg 95%
    11:00 +10°C° 0 mm 2 mps 746 mmHg 92%
    12:00 +12°C° 0 mm 2 mps 746 mmHg 90%
    13:00 +11°C° 0 mm 3 mps 746 mmHg 90%
    14:00 +11°C° 0 mm 3 mps 745 mmHg 90%
    15:00 +10°C° 0 mm 3 mps 745 mmHg 91%
    16:00 +10°C° 0 mm 3 mps 745 mmHg 91%
    17:00 +9°C° 0 mm 3 mps 745 mmHg 92%
    18:00 +9°C° 0 mm 3 mps 745 mmHg 93%
    19:00 +9°C° 0 mm 3 mps 745 mmHg 93%
    20:00 +9°C° 0 mm 3 mps 745 mmHg 94%
    21:00 +9°C° 0 mm 3 mps 745 mmHg 95%
    22:00 +9°C° 0 mm 3 mps 745 mmHg 94%
    23:00 +8°C° 0 mm 3 mps 745 mmHg 93%

    25 November, Monday

    Time Temperature Precipitation Wind Pressure Humidity
    00:00 +7°C° 0 mm 4 mps 744 mmHg 93%
    01:00 +7°C° 0.2 mm 4 mps 744 mmHg 93%
    02:00 +8°C° 0.2 mm 5 mps 743 mmHg 93%
    03:00 +8°C° 0.2 mm 6 mps 743 mmHg 93%
    04:00 +8°C° 0.8 mm 6 mps 743 mmHg 93%
    05:00 +9°C° 0.8 mm 6 mps 742 mmHg 94%
    06:00 +9°C° 0.8 mm 6 mps 742 mmHg 94%
    07:00 +9°C° 1 mm 6 mps 741 mmHg 93%
    08:00 +10°C° 1 mm 6 mps 741 mmHg 93%
    09:00 +10°C° 1 mm 6 mps 741 mmHg 92%
    10:00 +10°C° 0.9 mm 6 mps 741 mmHg 88%
    11:00 +10°C° 0.9 mm 6 mps 740 mmHg 84%
    12:00 +11°C° 0.9 mm 6 mps 740 mmHg 80%
    13:00 +10°C° 0.3 mm 6 mps 740 mmHg 82%
    14:00 +10°C° 0.3 mm 7 mps 739 mmHg 84%
    15:00 +10°C° 0.3 mm 7 mps 739 mmHg 86%
    16:00 +9°C° 0.1 mm 7 mps 739 mmHg 86%
    17:00 +9°C° 0.1 mm 7 mps 739 mmHg 86%
    18:00 +9°C° 0.1 mm 6 mps 739 mmHg 87%
    19:00 +9°C° 0.2 mm 6 mps 739 mmHg 88%
    20:00 +9°C° 0.2 mm 6 mps 739 mmHg 90%
    21:00 +9°C° 0.2 mm 6 mps 739 mmHg 91%
    22:00 +9°C° 0.9 mm 6 mps 739 mmHg 91%
    23:00 +9°C° 0.9 mm 6 mps 740 mmHg 91%

    26 November, Tuesday

    Time Temperature Precipitation Wind Pressure Humidity
    00:00 +9°C° 0.9 mm 7 mps 740 mmHg 90%
    01:00 +9°C° 0.5 mm 7 mps 740 mmHg 91%
    02:00 +9°C° 0.5 mm 7 mps 740 mmHg 91%
    03:00 +9°C° 0.5 mm 6 mps 740 mmHg 91%
    04:00 +9°C° 0.3 mm 7 mps 740 mmHg 90%
    05:00 +9°C° 0.3 mm 7 mps 740 mmHg 89%
    06:00 +9°C° 0.3 mm 7 mps 740 mmHg 88%
    07:00 +9°C° 0 mm 6 mps 741 mmHg 88%
    08:00 +8°C° 0 mm 6 mps 741 mmHg 87%
    09:00 +8°C° 0 mm 6 mps 741 mmHg 87%
    10:00 +9°C° 0 mm 6 mps 740 mmHg 86%
    11:00 +9°C° 0 mm 6 mps 740 mmHg 85%
    12:00 +10°C° 0 mm 6 mps 739 mmHg 84%
    13:00 +9°C° 0.9 mm 7 mps 738 mmHg 87%
    14:00 +9°C° 0.9 mm 7 mps 736 mmHg 90%
    15:00 +9°C° 0.9 mm 8 mps 735 mmHg 93%
    16:00 +9°C° 3.2 mm 8 mps 734 mmHg 90%
    17:00 +9°C° 3.2 mm 7 mps 733 mmHg 87%
    18:00 +9°C° 3.2 mm 7 mps 732 mmHg 84%
    19:00 +8°C° 0 mm 7 mps 732 mmHg 84%
    20:00 +7°C° 0 mm 6 mps 733 mmHg 84%
    21:00 +5°C° 0 mm 6 mps 733 mmHg 83%
    22:00 +6°C° 0 mm 5 mps 733 mmHg 84%
    23:00 +7°C° 0 mm 5 mps 733 mmHg 84%

    27 November, Wednesday

    Time Temperature Precipitation Wind Pressure Humidity
    00:00 +7°C° 0 mm 4 mps 733 mmHg 84%
    01:00 +7°C° 0.5 mm 5 mps 731 mmHg 87%
    02:00 +7°C° 0.5 mm 5 mps 730 mmHg 89%
    03:00 +7°C° 0.5 mm 5 mps 729 mmHg 91%
    04:00 +8°C° 0.3 mm 3 mps 729 mmHg 92%
    05:00 +8°C° 0.3 mm 2 mps 728 mmHg 93%
    06:00 +8°C° 0.3 mm 1 mps 728 mmHg 94%
    07:00 +8°C° 0 mm 2 mps 729 mmHg 94%
    08:00 +8°C° 0 mm 3 mps 729 mmHg 94%
    09:00 +7°C° 0 mm 4 mps 730 mmHg 93%
    10:00 +7°C° 0 mm 5 mps 731 mmHg 90%
    11:00 +8°C° 0 mm 5 mps 732 mmHg 87%
    12:00 +8°C° 0 mm 6 mps 733 mmHg 84%
    13:00 +8°C° 0.1 mm 6 mps 733 mmHg 83%
    14:00 +8°C° 0.1 mm 6 mps 734 mmHg 83%
    15:00 +8°C° 0.1 mm 6 mps 734 mmHg 82%
    16:00 +8°C° 0 mm 6 mps 735 mmHg 84%
    17:00 +7°C° 0 mm 6 mps 735 mmHg 86%
    18:00 +7°C° 0 mm 6 mps 736 mmHg 88%
    19:00 +7°C° 0 mm 6 mps 736 mmHg 88%
    20:00 +7°C° 0 mm 6 mps 736 mmHg 88%
    21:00 +7°C° 0 mm 6 mps 737 mmHg 87%
    22:00 +7°C° 0 mm 6 mps 737 mmHg 87%
    23:00 +6°C° 0 mm 7 mps 737 mmHg 88%
    Show more